Location: Kott?ru
(16.6209°N, 80.6208°E)
Time: 14:40:54
(UTC+00:00)

SL-16 R/B - Pass Details

Date: 18 September 2020
Orbit: 842 x 846 km, 71.0° (Epoch: 30 October)

Event Time Altitude Azimuth Distance (km) Brightness Sun altitude
Exits shadow 21:38:12 23° 80° (E) 1,719 4.3 -40.5°
Drops below altitude 10° 21:41:20 10° 49° (NE) 2,456 5.2 -39.8°
Sets 21:44:10 0° 36° (NE) 3,393 5.9 -39.2°
